Location: Boston
(42.3580°N, 71.0600°W)
Time: 23:34:02
(UTC-04:00)

OTV 5 (USA 277) - Pass Details

Date: 13 October 2017
Orbit: 404 x 417 km, 43.0° (Epoch: 07 September)

Event Time Altitude Azimuth Distance (km) Brightness Sun altitude
Rises 20:24:56 0° 272° (W) 2,354 ? -26.5°
Reaches altitude 10° 20:27:03 10° 274° (W) 1,491 ? -26.9°
Enters shadow 20:28:29 23° 276° (W) 928 ? -27.1°
